Terug naar catalogus

SL-8 DEB *

ActiefLEO
NORAD 13029·DEBRIS·🇷🇺 Russia

Gelanceerd Jan 7, 1982 vanaf Plesetsk Cosmodrome

Loading…

Volgende Passages (komende 24 uur)

TLE

VersSource: Space-Track

Epoch: Sep 14, 2026, 04:47 UTC

1 13029U 82001C   26257.19998137  .00001975  00000-0  28519-3 0  9995
2 13029  73.9639 271.5794 0007815 324.9048 158.6829 14.76950189309203

Volg SL-8 DEB * in realtime met AllMySat

Download on the App Store